Regional Weather Roundup
Issued by NWS

Home | Current Version | Previous Version | Graphics & Text | Print | Product List | Glossary On
Versions: 1 2 3 4 5 6 7 8 9 10 11 12 13 14 15 16 17 18 19 20 21 22 23 24 25 26 27 28
000
ASUS45 KBOI 171310
RWRID

IDAHO REGIONAL WEATHER ROUNDUP
NATIONAL WEATHER SERVICE BOISE ID
700 AM MDT TUE OCT 17 2017

NOTE: "FAIR" INDICATES FEW OR NO CLOUDS BELOW 12000 FEET
WITH NO SIGNIFICANT WEATHER AND/OR OBSTRUCTIONS TO VISIBILITY

IDZ012-014-171400-
SOUTHWEST IDAHO


CITY           SKY/WX    TMP DP  RH WIND       PRES   REMARKS
BOISE          CLEAR     40  29  64 SE8       30.20F WCI  34
CALDWELL       CLEAR     30  24  78 NE5       30.21S WCI  25
MOUNTAIN HOME  PTCLDY    36  27  71 E9        30.20F WCI  29
$$

IDZ016-017-171400-
SOUTHCENTRAL IDAHO


CITY           SKY/WX    TMP DP  RH WIND       PRES   REMARKS
BURLEY         CLEAR     30  24  78 N3        30.24F
JEROME         CLEAR     38  26  62 NE15      30.22F WCI  29
TWIN FALLS     CLEAR     33  24  69 SE7       30.22F WCI  27
$$

IDZ019>023-171400-
SOUTHEAST IDAHO


CITY           SKY/WX    TMP DP  RH WIND       PRES   REMARKS
IDAHO FALLS    CLOUDY    27  23  85 N6        30.30F WCI  20
POCATELLO      CLOUDY    28  24  85 CALM      30.29S
REXBURG        CLOUDY    26  23  88 NE5       30.30F WCI  20
$$

IDZ006-010-011-018-031-032-171400-
CENTRAL IDAHO MOUNTAINS


CITY           SKY/WX    TMP DP  RH WIND       PRES   REMARKS
MCCALL         CLEAR     27  24  89 CALM      30.21F
HAILEY         CLEAR     34  23  64 NW9       30.31F WCI  26
STANLEY          N/A     21  17  84 CALM      30.33S
SALMON         CLOUDY    24  20  84 CALM      30.26F
CHALLIS        CLEAR     26  22  84 CALM      30.27F
$$

IDZ002-004-006-007-026-171400-
NORTHERN IDAHO


CITY           SKY/WX    TMP DP  RH WIND       PRES   REMARKS
LEWISTON       CLEAR     47  36  65 N3        30.02F
LOWELL           N/A     37  36  96 N7        30.17F WCI  32
COEUR D`ALENE  CLEAR     44  35  70 S9        29.98F
MULLAN PASS    CLEAR     40  22  48 VRB3      30.06F
$$




USA.gov is the U.S. government's official web portal to all federal, state and local government web resources and services.